date,time,SUV Intensity [MED/Hr],UV Index,Daily total [MED],Since Last [MED]
27/05/2023,00:02:15,0.000,0.0,0.0,0.0
27/05/2023,00:03:14,-0.000,0.0,0.0,0.0
27/05/2023,00:04:36,-0.001,0.0,0.0,0.0
27/05/2023,00:06:15,0.000,0.0,0.0,0.0
27/05/2023,00:07:15,0.001,0.0,0.0,0.0
27/05/2023,00:08:15,-0.001,0.0,0.0,0.0
27/05/2023,00:09:14,0.001,0.0,0.0,0.0
27/05/2023,00:10:15,0.000,0.0,0.0,0.0
27/05/2023,00:11:15,0.000,0.0,0.0,0.0
27/05/2023,00:12:14,0.001,0.0,0.0,0.0
27/05/2023,00:13:14,0.000,0.0,0.0,0.0
27/05/2023,00:14:15,0.000,0.0,0.0,0.0
27/05/2023,00:15:15,0.000,0.0,0.0,0.0
27/05/2023,00:16:14,0.000,0.0,0.0,0.0
27/05/2023,00:17:14,-0.001,0.0,0.0,0.0
27/05/2023,00:18:15,0.000,0.0,0.0,0.0
27/05/2023,00:19:16,0.001,0.0,0.0,0.0
27/05/2023,00:20:14,0.001,0.0,0.0,0.0
27/05/2023,00:21:14,0.000,0.0,0.0,0.0
27/05/2023,00:22:14,0.000,0.0,0.0,0.0
27/05/2023,00:23:15,0.000,0.0,0.0,0.0
27/05/2023,00:24:15,0.000,0.0,0.0,0.0
27/05/2023,00:25:15,0.000,0.0,0.0,0.0
27/05/2023,00:26:15,0.000,0.0,0.0,0.0
27/05/2023,00:27:15,0.000,0.0,0.0,0.0
27/05/2023,00:28:14,0.000,0.0,0.0,0.0
27/05/2023,00:29:14,0.001,0.0,0.0,0.0
27/05/2023,00:30:15,0.000,0.0,0.0,0.0
27/05/2023,00:31:15,0.001,0.0,0.0,0.0
27/05/2023,00:32:15,0.000,0.0,0.0,0.0
27/05/2023,00:33:15,0.001,0.0,0.0,0.0
27/05/2023,00:34:15,0.001,0.0,0.0,0.0
27/05/2023,00:35:14,0.001,0.0,0.0,0.0
27/05/2023,00:36:15,-0.000,0.0,0.0,0.0
27/05/2023,00:37:15,0.001,0.0,0.0,0.0
27/05/2023,00:38:15,0.001,0.0,0.0,0.0
27/05/2023,00:39:15,0.001,0.0,0.0,0.0
27/05/2023,00:40:15,0.000,0.0,0.0,0.0
27/05/2023,00:41:15,0.001,0.0,0.0,0.0
27/05/2023,00:42:15,0.001,0.0,0.0,0.0
27/05/2023,00:43:15,0.001,0.0,0.0,0.0
27/05/2023,00:44:15,0.001,0.0,0.0,0.0
27/05/2023,00:45:15,0.001,0.0,0.0,0.0
27/05/2023,00:46:15,0.001,0.0,0.0,0.0
27/05/2023,00:47:15,0.000,0.0,0.0,0.0
27/05/2023,00:48:15,0.001,0.0,0.0,0.0
27/05/2023,00:49:16,0.001,0.0,0.0,0.0
27/05/2023,00:50:18,0.001,0.0,0.0,0.0
27/05/2023,00:51:15,0.001,0.0,0.0,0.0
27/05/2023,00:52:14,0.001,0.0,0.0,0.0
27/05/2023,00:53:15,0.001,0.0,0.0,0.0
27/05/2023,00:54:15,0.001,0.0,0.0,0.0
27/05/2023,00:55:15,0.000,0.0,0.0,0.0
27/05/2023,00:56:15,0.001,0.0,0.0,0.0
27/05/2023,00:57:14,0.001,0.0,0.0,0.0
27/05/2023,00:58:15,0.001,0.0,0.0,0.0
27/05/2023,00:59:15,0.001,0.0,0.0,0.0
27/05/2023,01:00:15,0.000,0.0,0.0,0.0
27/05/2023,01:01:14,0.001,0.0,0.0,0.0
27/05/2023,01:02:15,0.001,0.0,0.0,0.0
27/05/2023,01:03:15,0.001,0.0,0.0,0.0
27/05/2023,01:04:15,0.001,0.0,0.0,0.0
27/05/2023,01:05:15,0.001,0.0,0.0,0.0
27/05/2023,01:06:15,0.001,0.0,0.0,0.0
27/05/2023,01:07:15,0.001,0.0,0.0,0.0
27/05/2023,01:08:15,0.001,0.0,0.0,0.0
27/05/2023,01:09:15,0.001,0.0,0.0,0.0
27/05/2023,01:10:15,0.001,0.0,0.0,0.0
27/05/2023,01:11:15,0.001,0.0,0.0,0.0
27/05/2023,01:12:15,0.001,0.0,0.0,0.0
27/05/2023,01:13:14,0.001,0.0,0.0,0.0
27/05/2023,01:14:15,0.001,0.0,0.0,0.0
27/05/2023,01:15:15,0.001,0.0,0.0,0.0
27/05/2023,01:16:14,0.001,0.0,0.0,0.0
27/05/2023,01:17:15,0.001,0.0,0.0,0.0
27/05/2023,01:18:15,0.001,0.0,0.0,0.0
27/05/2023,01:19:14,0.001,0.0,0.0,0.0
27/05/2023,01:20:15,0.000,0.0,0.0,0.0
27/05/2023,01:21:14,0.001,0.0,0.0,0.0
27/05/2023,01:22:15,0.001,0.0,0.0,0.0
27/05/2023,01:23:15,0.001,0.0,0.0,0.0
27/05/2023,01:24:14,0.001,0.0,0.0,0.0
27/05/2023,01:25:15,0.001,0.0,0.0,0.0
27/05/2023,01:26:15,0.001,0.0,0.0,0.0
27/05/2023,01:27:15,0.001,0.0,0.0,0.0
27/05/2023,01:28:15,0.001,0.0,0.0,0.0
27/05/2023,01:29:14,0.001,0.0,0.0,0.0
27/05/2023,01:30:14,0.001,0.0,0.0,0.0
27/05/2023,01:31:14,0.001,0.0,0.0,0.0
27/05/2023,01:32:15,0.001,0.0,0.0,0.0
27/05/2023,01:33:15,0.001,0.0,0.0,0.0
27/05/2023,01:34:14,0.001,0.0,0.0,0.0
27/05/2023,01:35:15,0.001,0.0,0.0,0.0
27/05/2023,01:36:15,0.001,0.0,0.0,0.0
27/05/2023,01:37:15,0.001,0.0,0.0,0.0
27/05/2023,01:38:15,0.001,0.0,0.0,0.0
27/05/2023,01:39:15,0.001,0.0,0.0,0.0
27/05/2023,01:40:15,0.001,0.0,0.0,0.0
27/05/2023,01:41:14,0.001,0.0,0.0,0.0
27/05/2023,01:42:15,0.001,0.0,0.0,0.0
27/05/2023,01:43:15,0.001,0.0,0.0,0.0
27/05/2023,01:44:15,0.001,0.0,0.0,0.0
27/05/2023,01:45:15,0.001,0.0,0.0,0.0
27/05/2023,01:46:14,0.000,0.0,0.0,0.0
27/05/2023,01:47:14,0.001,0.0,0.0,0.0
27/05/2023,01:48:15,0.001,0.0,0.0,0.0
27/05/2023,01:49:15,0.001,0.0,0.0,0.0
27/05/2023,01:50:15,0.001,0.0,0.0,0.0
27/05/2023,01:51:15,0.001,0.0,0.0,0.0
27/05/2023,01:52:15,0.001,0.0,0.0,0.0
27/05/2023,01:53:14,0.001,0.0,0.0,0.0
27/05/2023,01:54:15,0.001,0.0,0.0,0.0
27/05/2023,01:55:15,0.000,0.0,0.0,0.0
27/05/2023,01:56:15,0.001,0.0,0.0,0.0
27/05/2023,01:57:14,0.001,0.0,0.0,0.0
27/05/2023,01:58:15,0.001,0.0,0.0,0.0
27/05/2023,01:59:15,0.001,0.0,0.0,0.0
27/05/2023,02:00:15,0.001,0.0,0.0,0.0
27/05/2023,02:01:15,0.001,0.0,0.0,0.0
27/05/2023,02:02:15,0.001,0.0,0.0,0.0
27/05/2023,02:03:15,0.000,0.0,0.0,0.0
27/05/2023,02:04:14,0.001,0.0,0.0,0.0
27/05/2023,02:05:15,0.001,0.0,0.0,0.0
27/05/2023,02:06:15,0.001,0.0,0.0,0.0
27/05/2023,02:07:15,0.001,0.0,0.0,0.0
27/05/2023,02:08:15,0.001,0.0,0.0,0.0
27/05/2023,02:09:15,0.001,0.0,0.0,0.0
27/05/2023,02:10:15,0.001,0.0,0.0,0.0
27/05/2023,02:11:15,0.001,0.0,0.0,0.0
27/05/2023,02:12:15,0.001,0.0,0.0,0.0
27/05/2023,02:13:15,0.001,0.0,0.0,0.0
27/05/2023,02:14:15,0.001,0.0,0.0,0.0
27/05/2023,02:15:15,0.001,0.0,0.0,0.0
27/05/2023,02:16:15,0.001,0.0,0.0,0.0
27/05/2023,02:17:15,0.001,0.0,0.0,0.0
27/05/2023,02:18:15,0.001,0.0,0.0,0.0
27/05/2023,02:19:15,0.000,0.0,0.0,0.0
27/05/2023,02:20:14,0.001,0.0,0.0,0.0
27/05/2023,02:21:15,0.001,0.0,0.0,0.0
27/05/2023,02:22:15,0.001,0.0,0.0,0.0
27/05/2023,02:23:14,0.001,0.0,0.0,0.0
27/05/2023,02:24:14,0.001,0.0,0.0,0.0
27/05/2023,02:25:15,0.001,0.0,0.0,0.0
27/05/2023,02:26:14,0.001,0.0,0.0,0.0
27/05/2023,02:27:15,0.001,0.0,0.0,0.0
27/05/2023,02:28:14,0.001,0.0,0.0,0.0
27/05/2023,02:29:15,0.001,0.0,0.0,0.0
27/05/2023,02:30:15,0.001,0.0,0.0,0.0
27/05/2023,02:31:15,0.001,0.0,0.0,0.0
27/05/2023,02:32:15,0.001,0.0,0.0,0.0
27/05/2023,02:33:15,0.001,0.0,0.0,0.0
27/05/2023,02:34:15,0.001,0.0,0.0,0.0
27/05/2023,02:35:15,0.001,0.0,0.0,0.0
27/05/2023,02:36:15,0.001,0.0,0.0,0.0
27/05/2023,02:37:15,0.001,0.0,0.0,0.0
27/05/2023,02:38:14,0.000,0.0,0.0,0.0
27/05/2023,02:39:15,0.001,0.0,0.0,0.0
27/05/2023,02:40:14,0.000,0.0,0.0,0.0
27/05/2023,02:41:15,0.001,0.0,0.0,0.0
27/05/2023,02:42:15,0.001,0.0,0.0,0.0
27/05/2023,02:43:15,0.001,0.0,0.0,0.0
27/05/2023,02:44:15,0.001,0.0,0.0,0.0
27/05/2023,02:45:15,0.001,0.0,0.0,0.0
27/05/2023,02:46:15,0.001,0.0,0.0,0.0
27/05/2023,02:47:15,0.001,0.0,0.0,0.0
27/05/2023,02:48:15,0.001,0.0,0.0,0.0
27/05/2023,02:49:15,0.001,0.0,0.0,0.0
27/05/2023,02:50:15,0.001,0.0,0.0,0.0
27/05/2023,02:51:14,0.001,0.0,0.0,0.0
27/05/2023,02:52:15,0.001,0.0,0.0,0.0
27/05/2023,02:53:15,0.001,0.0,0.0,0.0
27/05/2023,02:54:15,0.001,0.0,0.0,0.0
27/05/2023,02:55:15,0.001,0.0,0.0,0.0
27/05/2023,02:56:14,0.001,0.0,0.0,0.0
27/05/2023,02:57:15,0.001,0.0,0.0,0.0
27/05/2023,02:58:15,0.001,0.0,0.0,0.0
27/05/2023,02:59:15,0.001,0.0,0.0,0.0
27/05/2023,03:00:15,0.001,0.0,0.0,0.0
27/05/2023,03:01:15,0.001,0.0,0.0,0.0
27/05/2023,03:02:15,0.001,0.0,0.0,0.0
27/05/2023,03:03:15,0.001,0.0,0.0,0.0
27/05/2023,03:04:15,0.001,0.0,0.0,0.0
27/05/2023,03:05:15,0.001,0.0,0.0,0.0
27/05/2023,03:06:15,0.001,0.0,0.0,0.0
27/05/2023,03:07:15,0.001,0.0,0.0,0.0
27/05/2023,03:08:15,0.001,0.0,0.0,0.0
27/05/2023,03:09:15,0.001,0.0,0.0,0.0
27/05/2023,03:10:15,0.001,0.0,0.0,0.0
27/05/2023,03:11:15,0.001,0.0,0.0,0.0
27/05/2023,03:12:15,0.001,0.0,0.0,0.0
27/05/2023,03:13:14,0.001,0.0,0.0,0.0
27/05/2023,03:14:15,0.001,0.0,0.0,0.0
27/05/2023,03:15:15,0.001,0.0,0.0,0.0
27/05/2023,03:16:15,0.001,0.0,0.0,0.0
27/05/2023,03:17:15,0.001,0.0,0.0,0.0
27/05/2023,03:18:15,0.001,0.0,0.0,0.0
27/05/2023,03:19:15,0.001,0.0,0.0,0.0
27/05/2023,03:20:15,0.001,0.0,0.0,0.0
27/05/2023,03:21:15,0.001,0.0,0.0,0.0
27/05/2023,03:22:15,0.001,0.0,0.0,0.0
27/05/2023,03:23:15,0.001,0.0,0.0,0.0
27/05/2023,03:24:15,0.001,0.0,0.0,0.0
27/05/2023,03:25:16,0.002,0.0,0.0,0.0
27/05/2023,03:26:15,0.001,0.0,0.0,0.0
27/05/2023,03:27:15,0.001,0.0,0.0,0.0
27/05/2023,03:28:15,0.001,0.0,0.0,0.0
27/05/2023,03:29:15,0.001,0.0,0.0,0.0
27/05/2023,03:30:14,0.001,0.0,0.0,0.0
27/05/2023,03:31:15,0.001,0.0,0.0,0.0
27/05/2023,03:32:15,0.001,0.0,0.0,0.0
27/05/2023,03:33:15,0.001,0.0,0.0,0.0
27/05/2023,03:34:15,0.002,0.0,0.0,0.0
27/05/2023,03:35:15,0.002,0.0,0.0,0.0
27/05/2023,03:36:15,0.002,0.0,0.0,0.0
27/05/2023,03:37:15,0.002,0.0,0.0,0.0
27/05/2023,03:38:15,0.002,0.0,0.0,0.0
27/05/2023,03:39:15,0.002,0.0,0.0,0.0
27/05/2023,03:40:15,0.002,0.0,0.0,0.0
27/05/2023,03:41:15,0.003,0.0,0.0,0.0
27/05/2023,03:42:15,0.002,0.0,0.0,0.0
27/05/2023,03:43:15,0.003,0.0,0.0,0.0
27/05/2023,03:44:15,0.002,0.0,0.0,0.0
27/05/2023,03:45:14,0.002,0.0,0.0,0.0
27/05/2023,03:46:15,0.002,0.0,0.0,0.0
27/05/2023,03:47:15,0.002,0.0,0.0,0.0
27/05/2023,03:48:15,0.003,0.0,0.0,0.0
27/05/2023,03:49:15,0.002,0.0,0.0,0.0
27/05/2023,03:50:15,0.002,0.0,0.0,0.0
27/05/2023,03:51:15,0.002,0.0,0.0,0.0
27/05/2023,03:52:15,0.002,0.0,0.0,0.0
27/05/2023,03:53:15,0.004,0.0,0.0,0.0
27/05/2023,03:54:15,0.003,0.0,0.0,0.0
27/05/2023,03:55:15,0.003,0.0,0.0,0.0
27/05/2023,03:56:15,0.003,0.0,0.0,0.0
27/05/2023,03:57:15,0.003,0.0,0.0,0.0
27/05/2023,03:58:15,0.003,0.0,0.0,0.0
27/05/2023,03:59:15,0.003,0.0,0.0,0.0
27/05/2023,04:00:15,0.004,0.0,0.0,0.0
27/05/2023,04:01:15,0.004,0.0,0.0,0.0
27/05/2023,04:02:15,0.004,0.0,0.0,0.0
27/05/2023,04:03:15,0.004,0.0,0.0,0.0
27/05/2023,04:04:16,0.004,0.0,0.0,0.0
27/05/2023,04:05:15,0.004,0.0,0.0,0.0
27/05/2023,04:06:15,0.004,0.0,0.0,0.0
27/05/2023,04:07:15,0.005,0.0,0.0,0.0
27/05/2023,04:08:15,0.005,0.0,0.0,0.0
27/05/2023,04:09:14,0.005,0.0,0.0,0.0
27/05/2023,04:10:15,0.005,0.0,0.0,0.0
27/05/2023,04:11:15,0.005,0.0,0.0,0.0
27/05/2023,04:12:15,0.006,0.0,0.0,0.0
27/05/2023,04:13:15,0.007,0.0,0.0,0.0
27/05/2023,04:14:15,0.006,0.0,0.0,0.0
27/05/2023,04:15:15,0.006,0.0,0.0,0.0
27/05/2023,04:16:15,0.007,0.0,0.0,0.0
27/05/2023,04:17:15,0.006,0.0,0.0,0.0
27/05/2023,04:18:15,0.008,0.0,0.0,0.0
27/05/2023,04:19:15,0.007,0.0,0.001,0.001
27/05/2023,04:20:15,0.008,0.0,0.001,0.0
27/05/2023,04:21:15,0.007,0.0,0.001,0.0
27/05/2023,04:22:15,0.009,0.0,0.001,0.0
27/05/2023,04:23:15,0.008,0.0,0.001,0.0
27/05/2023,04:24:15,0.009,0.0,0.001,0.0
27/05/2023,04:25:15,0.009,0.0,0.001,0.0
27/05/2023,04:26:15,0.010,0.0,0.002,0.001
27/05/2023,04:27:15,0.010,0.0,0.002,0.0
27/05/2023,04:28:15,0.010,0.0,0.002,0.0
27/05/2023,04:29:15,0.012,0.0,0.002,0.0
27/05/2023,04:30:15,0.011,0.0,0.002,0.0
27/05/2023,04:31:15,0.010,0.0,0.002,0.0
27/05/2023,04:32:15,0.011,0.0,0.003,0.001
27/05/2023,04:33:15,0.011,0.0,0.003,0.0
27/05/2023,04:34:15,0.011,0.0,0.003,0.0
27/05/2023,04:35:15,0.010,0.0,0.003,0.0
27/05/2023,04:36:16,0.011,0.0,0.003,0.0
27/05/2023,04:37:15,0.012,0.0,0.004,0.001
27/05/2023,04:38:15,0.011,0.0,0.004,0.0
27/05/2023,04:39:15,0.011,0.0,0.004,0.0
27/05/2023,04:40:15,0.011,0.0,0.004,0.0
27/05/2023,04:41:15,0.011,0.0,0.004,0.0
27/05/2023,04:42:15,0.012,0.0,0.004,0.0
27/05/2023,04:43:15,0.012,0.0,0.005,0.001
27/05/2023,04:44:15,0.012,0.0,0.005,0.0
27/05/2023,04:45:15,0.012,0.0,0.005,0.0
27/05/2023,04:46:15,0.012,0.0,0.005,0.0
27/05/2023,04:47:15,0.013,0.0,0.006,0.001
27/05/2023,04:48:15,0.013,0.0,0.006,0.0
27/05/2023,04:49:15,0.013,0.0,0.006,0.0
27/05/2023,04:50:15,0.013,0.0,0.006,0.0
27/05/2023,04:51:15,0.013,0.0,0.006,0.0
27/05/2023,04:52:15,0.014,0.0,0.007,0.001
27/05/2023,04:53:15,0.014,0.0,0.007,0.0
27/05/2023,04:54:15,0.016,0.0,0.007,0.0
27/05/2023,04:55:20,0.015,0.0,0.007,0.0
27/05/2023,04:56:16,0.014,0.0,0.008,0.001
27/05/2023,04:57:15,0.015,0.0,0.008,0.0
27/05/2023,04:58:15,0.016,0.0,0.008,0.0
27/05/2023,04:59:15,0.016,0.0,0.008,0.0
27/05/2023,05:00:15,0.016,0.0,0.009,0.001
27/05/2023,05:01:15,0.018,0.0,0.009,0.0
27/05/2023,05:02:15,0.017,0.0,0.009,0.0
27/05/2023,05:03:15,0.017,0.0,0.009,0.0
27/05/2023,05:04:15,0.018,0.0,0.01,0.001
27/05/2023,05:05:15,0.018,0.0,0.01,0.0
27/05/2023,05:06:15,0.018,0.0,0.01,0.0
27/05/2023,05:07:15,0.020,0.0,0.011,0.001
27/05/2023,05:08:15,0.019,0.0,0.011,0.0
27/05/2023,05:09:15,0.020,0.0,0.011,0.0
27/05/2023,05:10:37,0.021,0.0,0.012,0.001
27/05/2023,05:12:16,0.022,0.0,0.012,0.0
27/05/2023,05:13:16,0.022,0.0,0.013,0.001
27/05/2023,05:14:15,0.023,0.0,0.013,0.0
27/05/2023,05:15:15,0.024,0.0,0.013,0.0
27/05/2023,05:16:16,0.024,0.0,0.014,0.001
27/05/2023,05:17:16,0.023,0.0,0.014,0.0
27/05/2023,05:18:15,0.023,0.0,0.015,0.001
27/05/2023,05:19:15,0.024,0.0,0.015,0.0
27/05/2023,05:20:15,0.025,0.0,0.015,0.0
27/05/2023,05:21:15,0.026,0.0,0.016,0.001
27/05/2023,05:22:15,0.027,0.0,0.016,0.0
27/05/2023,05:23:15,0.027,0.0,0.017,0.001
27/05/2023,05:24:16,0.029,0.0,0.017,0.0
27/05/2023,05:25:15,0.031,0.0,0.018,0.001
27/05/2023,05:26:15,0.031,0.0,0.018,0.0
27/05/2023,05:27:15,0.031,0.0,0.019,0.001
27/05/2023,05:28:15,0.032,0.0,0.019,0.0
27/05/2023,05:29:15,0.032,0.0,0.02,0.001
27/05/2023,05:30:15,0.032,0.0,0.02,0.0
27/05/2023,05:31:15,0.032,0.0,0.021,0.001
27/05/2023,05:32:15,0.032,0.0,0.021,0.0
27/05/2023,05:33:16,0.035,0.0,0.022,0.001
27/05/2023,05:34:16,0.037,0.0,0.023,0.001
27/05/2023,05:35:16,0.036,0.0,0.023,0.0
27/05/2023,05:36:15,0.036,0.0,0.024,0.001
27/05/2023,05:37:15,0.039,0.0,0.024,0.0
27/05/2023,05:38:16,0.041,0.0,0.025,0.001
27/05/2023,05:39:15,0.045,0.0,0.026,0.001
27/05/2023,05:40:15,0.045,0.0,0.027,0.001
27/05/2023,05:41:15,0.046,0.0,0.027,0.0
27/05/2023,05:42:15,0.050,0.0,0.028,0.001
27/05/2023,05:43:15,0.052,0.0,0.029,0.001
27/05/2023,05:44:15,0.050,0.0,0.03,0.001
27/05/2023,05:45:15,0.051,0.0,0.031,0.001
27/05/2023,05:46:15,0.056,0.0,0.032,0.001
27/05/2023,05:47:15,0.057,0.0,0.032,0.0
27/05/2023,05:48:15,0.055,0.0,0.033,0.001
27/05/2023,05:49:15,0.057,0.0,0.034,0.001
27/05/2023,05:50:15,0.058,0.0,0.035,0.001
27/05/2023,05:51:15,0.055,0.0,0.036,0.001
27/05/2023,05:52:15,0.054,0.0,0.037,0.001
27/05/2023,05:53:15,0.056,0.0,0.038,0.001
27/05/2023,05:54:16,0.057,0.0,0.039,0.001
27/05/2023,05:55:14,0.064,0.0,0.04,0.001
27/05/2023,05:56:16,0.071,0.0,0.041,0.001
27/05/2023,05:57:15,0.075,0.0,0.042,0.001
27/05/2023,05:58:15,0.080,0.0,0.044,0.002
27/05/2023,05:59:15,0.081,0.0,0.045,0.001
27/05/2023,06:00:15,0.082,0.0,0.046,0.001
27/05/2023,06:01:16,0.083,0.0,0.048,0.002
27/05/2023,06:02:15,0.087,0.0,0.049,0.001
27/05/2023,06:03:15,0.092,0.0,0.051,0.002
27/05/2023,06:04:15,0.095,0.0,0.052,0.001
27/05/2023,06:05:15,0.097,0.0,0.054,0.002
27/05/2023,06:06:16,0.099,0.0,0.055,0.001
27/05/2023,06:07:15,0.096,0.0,0.057,0.002
27/05/2023,06:08:15,0.092,0.0,0.059,0.002
27/05/2023,06:09:15,0.091,0.0,0.06,0.001
27/05/2023,06:10:15,0.096,0.0,0.062,0.002
27/05/2023,06:11:15,0.099,0.0,0.063,0.001
27/05/2023,06:12:15,0.105,0.0,0.065,0.002
27/05/2023,06:13:15,0.110,0.0,0.067,0.002
27/05/2023,06:14:15,0.113,0.0,0.069,0.002
27/05/2023,06:15:15,0.115,0.0,0.071,0.002
27/05/2023,06:16:15,0.115,0.0,0.073,0.002
27/05/2023,06:17:15,0.118,0.0,0.074,0.001
27/05/2023,06:18:15,0.118,0.0,0.076,0.002
27/05/2023,06:19:15,0.117,0.0,0.078,0.002
27/05/2023,06:20:15,0.123,0.0,0.08,0.002
27/05/2023,06:21:15,0.130,0.0,0.082,0.002
27/05/2023,06:22:15,0.134,0.0,0.085,0.003
27/05/2023,06:23:15,0.143,0.0,0.087,0.002
27/05/2023,06:24:16,0.152,0.0,0.09,0.003
27/05/2023,06:25:15,0.157,0.0,0.092,0.002
27/05/2023,06:26:16,0.158,0.0,0.095,0.003
27/05/2023,06:27:16,0.156,0.0,0.097,0.002
27/05/2023,06:28:16,0.152,0.0,0.1,0.003
27/05/2023,06:29:16,0.147,0.0,0.102,0.002
27/05/2023,06:30:16,0.143,0.0,0.105,0.003
27/05/2023,06:31:15,0.142,0.0,0.107,0.002
27/05/2023,06:32:15,0.141,0.0,0.11,0.003
27/05/2023,06:33:15,0.142,0.0,0.112,0.002
27/05/2023,06:34:15,0.152,0.0,0.114,0.002
27/05/2023,06:35:15,0.160,0.0,0.117,0.003
27/05/2023,06:36:15,0.163,0.0,0.12,0.003
27/05/2023,06:37:15,0.166,0.0,0.122,0.002
27/05/2023,06:38:16,0.172,0.0,0.125,0.003
27/05/2023,06:39:15,0.180,0.0,0.128,0.003
27/05/2023,06:40:15,0.185,0.0,0.131,0.003
27/05/2023,06:41:16,0.188,0.0,0.134,0.003
27/05/2023,06:42:16,0.190,0.0,0.137,0.003
27/05/2023,06:43:15,0.192,0.0,0.141,0.004
27/05/2023,06:44:15,0.195,0.0,0.144,0.003
27/05/2023,06:45:15,0.201,0.0,0.147,0.003
27/05/2023,06:46:16,0.205,0.0,0.151,0.004
27/05/2023,06:47:15,0.207,0.0,0.154,0.003
27/05/2023,06:48:15,0.214,0.0,0.158,0.004
27/05/2023,06:49:15,0.214,0.0,0.161,0.003
27/05/2023,06:50:16,0.216,0.0,0.165,0.004
27/05/2023,06:51:16,0.225,1.0,0.168,0.003
27/05/2023,06:52:15,0.234,1.0,0.172,0.004
27/05/2023,06:53:15,0.235,1.0,0.176,0.004
27/05/2023,06:54:15,0.239,1.0,0.18,0.004
27/05/2023,06:55:16,0.242,1.0,0.184,0.004
27/05/2023,06:56:16,0.244,1.0,0.188,0.004
27/05/2023,06:57:15,0.245,1.0,0.192,0.004
27/05/2023,06:58:15,0.250,1.0,0.196,0.004
27/05/2023,06:59:15,0.254,1.0,0.201,0.005
27/05/2023,07:00:15,0.262,1.0,0.205,0.004
27/05/2023,07:01:15,0.270,1.0,0.209,0.004
27/05/2023,07:02:15,0.274,1.0,0.214,0.005
27/05/2023,07:03:17,0.280,1.0,0.219,0.005
27/05/2023,07:04:15,0.284,1.0,0.223,0.004
27/05/2023,07:05:16,0.284,1.0,0.228,0.005
27/05/2023,07:06:15,0.286,1.0,0.233,0.005
27/05/2023,07:07:15,0.290,1.0,0.237,0.004
27/05/2023,07:08:16,0.298,1.0,0.242,0.005
27/05/2023,07:09:15,0.310,1.0,0.247,0.005
27/05/2023,07:10:16,0.326,1.0,0.253,0.006
27/05/2023,07:11:16,0.387,1.0,0.259,0.006
27/05/2023,07:12:15,0.399,1.0,0.265,0.006
27/05/2023,07:13:15,0.407,1.0,0.272,0.007
27/05/2023,07:14:16,0.413,1.0,0.279,0.007
27/05/2023,07:15:16,0.379,1.0,0.286,0.007
27/05/2023,07:16:15,0.403,1.0,0.292,0.006
27/05/2023,07:17:15,0.379,1.0,0.298,0.006
27/05/2023,07:18:16,0.397,1.0,0.305,0.007
27/05/2023,07:19:15,0.395,1.0,0.312,0.007
27/05/2023,07:20:15,0.448,1.0,0.318,0.006
27/05/2023,07:21:15,0.432,1.0,0.326,0.008
27/05/2023,07:22:15,0.463,1.0,0.333,0.007
27/05/2023,07:23:17,0.478,1.0,0.341,0.008
27/05/2023,07:24:16,0.483,1.0,0.349,0.008
27/05/2023,07:25:15,0.487,1.0,0.357,0.008
27/05/2023,07:26:15,0.492,1.0,0.365,0.008
27/05/2023,07:27:16,0.495,1.0,0.373,0.008
27/05/2023,07:28:16,0.501,1.0,0.382,0.009
27/05/2023,07:29:15,0.461,1.0,0.39,0.008
27/05/2023,07:30:15,0.477,1.0,0.398,0.008
27/05/2023,07:31:16,0.445,1.0,0.406,0.008
27/05/2023,07:32:16,0.518,1.0,0.414,0.008
27/05/2023,07:33:15,0.468,1.0,0.422,0.008
27/05/2023,07:34:15,0.535,1.0,0.43,0.008
27/05/2023,07:35:15,0.527,1.0,0.439,0.009
27/05/2023,07:36:15,0.547,1.0,0.448,0.009
27/05/2023,07:37:15,0.556,1.0,0.458,0.01
27/05/2023,07:38:15,0.560,1.0,0.467,0.009
27/05/2023,07:39:15,0.564,1.0,0.476,0.009
27/05/2023,07:40:16,0.570,1.0,0.486,0.01
27/05/2023,07:41:16,0.577,1.0,0.495,0.009
27/05/2023,07:42:16,0.585,1.0,0.505,0.01
27/05/2023,07:43:15,0.567,1.0,0.515,0.01
27/05/2023,07:44:15,0.600,1.0,0.524,0.009
27/05/2023,07:45:15,0.609,1.0,0.534,0.01
27/05/2023,07:46:15,0.618,1.0,0.545,0.011
27/05/2023,07:47:15,0.628,1.0,0.555,0.01
27/05/2023,07:48:16,0.636,1.0,0.566,0.011
27/05/2023,07:49:15,0.645,1.0,0.576,0.01
27/05/2023,07:50:16,0.641,1.0,0.587,0.011
27/05/2023,07:51:15,0.650,1.0,0.597,0.01
27/05/2023,07:52:16,0.643,1.0,0.609,0.012
27/05/2023,07:53:16,0.667,2.0,0.619,0.01
27/05/2023,07:54:15,0.656,2.0,0.63,0.011
27/05/2023,07:55:15,0.682,2.0,0.641,0.011
27/05/2023,07:56:15,0.690,2.0,0.653,0.012
27/05/2023,07:57:16,0.696,2.0,0.665,0.012
27/05/2023,07:58:16,0.703,2.0,0.676,0.011
27/05/2023,07:59:16,0.713,2.0,0.688,0.012
27/05/2023,08:00:16,0.721,2.0,0.7,0.012
27/05/2023,08:01:16,0.731,2.0,0.712,0.012
27/05/2023,08:02:17,0.734,2.0,0.724,0.012
27/05/2023,08:03:15,0.728,2.0,0.737,0.013
27/05/2023,08:04:15,0.740,2.0,0.749,0.012
27/05/2023,08:05:16,0.750,2.0,0.761,0.012
27/05/2023,08:06:16,0.756,2.0,0.774,0.013
27/05/2023,08:07:16,0.767,2.0,0.786,0.012
27/05/2023,08:08:15,0.778,2.0,0.799,0.013
27/05/2023,08:09:15,0.778,2.0,0.812,0.013
27/05/2023,08:10:16,0.787,2.0,0.825,0.013
27/05/2023,08:11:16,0.805,2.0,0.839,0.014
27/05/2023,08:12:16,0.815,2.0,0.852,0.013
27/05/2023,08:13:16,0.818,2.0,0.866,0.014
27/05/2023,08:14:15,0.819,2.0,0.879,0.013
27/05/2023,08:15:15,0.820,2.0,0.893,0.014
27/05/2023,08:16:15,0.826,2.0,0.907,0.014
27/05/2023,08:17:16,0.844,2.0,0.92,0.013
27/05/2023,08:18:15,0.846,2.0,0.934,0.014
27/05/2023,08:19:15,0.852,2.0,0.949,0.015
27/05/2023,08:20:15,0.863,2.0,0.963,0.014
27/05/2023,08:21:16,0.872,2.0,0.977,0.014
27/05/2023,08:22:16,0.888,2.0,0.992,0.015
27/05/2023,08:23:15,0.894,2.0,1.007,0.015
27/05/2023,08:24:15,0.900,2.0,1.021,0.014
27/05/2023,08:25:15,0.906,2.0,1.037,0.016
27/05/2023,08:26:15,0.909,2.0,1.051,0.014
27/05/2023,08:27:16,0.916,2.0,1.067,0.016
27/05/2023,08:28:15,0.922,2.0,1.082,0.015
27/05/2023,08:29:15,0.927,2.0,1.098,0.016
27/05/2023,08:30:15,0.938,2.0,1.113,0.015
27/05/2023,08:31:16,0.946,2.0,1.129,0.016
27/05/2023,08:32:16,0.953,2.0,1.145,0.016
27/05/2023,08:33:16,0.964,2.0,1.161,0.016
27/05/2023,08:34:15,0.972,2.0,1.176,0.015
27/05/2023,08:35:16,0.978,2.0,1.193,0.017
27/05/2023,08:36:16,0.990,2.0,1.209,0.016
27/05/2023,08:37:16,0.996,2.0,1.225,0.016
27/05/2023,08:38:16,0.937,2.0,1.241,0.016
27/05/2023,08:39:16,1.011,2.0,1.257,0.016
27/05/2023,08:40:16,1.021,2.0,1.274,0.017
27/05/2023,08:41:14,1.028,2.0,1.29,0.016
27/05/2023,08:42:16,1.033,2.0,1.308,0.018
27/05/2023,08:43:16,1.048,2.0,1.325,0.017
27/05/2023,08:44:15,1.057,2.0,1.343,0.018
27/05/2023,08:45:16,1.070,2.0,1.361,0.018
27/05/2023,08:46:16,1.074,2.0,1.379,0.018
27/05/2023,08:47:15,1.078,2.0,1.397,0.018
27/05/2023,08:48:16,1.086,2.0,1.415,0.018
27/05/2023,08:49:16,1.088,3.0,1.433,0.018
27/05/2023,08:50:16,1.085,2.0,1.451,0.018
27/05/2023,08:51:15,1.085,2.0,1.469,0.018
27/05/2023,08:52:16,1.096,3.0,1.487,0.018
27/05/2023,08:53:15,1.101,3.0,1.506,0.019
27/05/2023,08:54:16,1.130,3.0,1.524,0.018
27/05/2023,08:55:16,1.136,3.0,1.543,0.019
27/05/2023,08:56:45,1.145,3.0,1.571,0.028
27/05/2023,08:58:16,1.165,3.0,1.6,0.029
27/05/2023,08:59:15,1.182,3.0,1.62,0.02
27/05/2023,09:00:16,1.180,3.0,1.639,0.019
27/05/2023,09:01:15,1.185,3.0,1.659,0.02
27/05/2023,09:02:15,1.189,3.0,1.679,0.02
27/05/2023,09:03:15,1.209,3.0,1.699,0.02
27/05/2023,09:04:15,1.211,3.0,1.719,0.02
27/05/2023,09:05:16,1.227,3.0,1.739,0.02
27/05/2023,09:06:16,1.230,3.0,1.76,0.021
27/05/2023,09:07:15,1.242,3.0,1.78,0.02
27/05/2023,09:08:16,1.252,3.0,1.801,0.021
27/05/2023,09:09:16,1.259,3.0,1.822,0.021
27/05/2023,09:10:15,1.270,3.0,1.843,0.021
27/05/2023,09:11:16,1.283,3.0,1.865,0.022
27/05/2023,09:12:16,1.288,3.0,1.886,0.021
27/05/2023,09:13:16,1.297,3.0,1.907,0.021
27/05/2023,09:14:16,1.299,3.0,1.929,0.022
27/05/2023,09:15:15,1.311,3.0,1.951,0.022
27/05/2023,09:16:15,1.307,3.0,1.973,0.022
27/05/2023,09:17:15,1.318,3.0,1.995,0.022
27/05/2023,09:18:16,1.325,3.0,2.017,0.022
27/05/2023,09:19:15,1.333,3.0,2.039,0.022
27/05/2023,09:20:15,1.341,3.0,2.06,0.021
27/05/2023,09:21:16,1.343,3.0,2.084,0.024
27/05/2023,09:22:16,1.349,3.0,2.106,0.022
27/05/2023,09:23:16,1.356,3.0,2.129,0.023
27/05/2023,09:24:16,1.382,3.0,2.152,0.023
27/05/2023,09:25:15,1.397,3.0,2.175,0.023
27/05/2023,09:26:15,1.409,3.0,2.198,0.023
27/05/2023,09:27:15,1.408,3.0,2.222,0.024
27/05/2023,09:28:15,1.425,3.0,2.245,0.023
27/05/2023,09:29:16,1.434,3.0,2.269,0.024
27/05/2023,09:30:15,1.437,3.0,2.293,0.024
27/05/2023,09:31:16,1.441,3.0,2.317,0.024
27/05/2023,09:32:16,1.438,3.0,2.341,0.024
27/05/2023,09:33:16,1.457,3.0,2.365,0.024
27/05/2023,09:34:15,1.458,3.0,2.389,0.024
27/05/2023,09:35:16,1.456,3.0,2.414,0.025
27/05/2023,09:36:16,1.445,3.0,2.438,0.024
27/05/2023,09:37:16,1.463,3.0,2.462,0.024
27/05/2023,09:38:15,1.484,3.0,2.486,0.024
27/05/2023,09:39:15,1.503,3.0,2.511,0.025
27/05/2023,09:40:16,1.513,3.0,2.536,0.025
27/05/2023,09:41:15,1.520,3.0,2.562,0.026
27/05/2023,09:42:15,1.527,4.0,2.587,0.025
27/05/2023,09:43:15,1.521,3.0,2.613,0.026
27/05/2023,09:44:18,1.541,4.0,2.639,0.026
27/05/2023,09:45:16,1.554,4.0,2.664,0.025
27/05/2023,09:46:15,1.560,4.0,2.69,0.026
27/05/2023,09:47:16,1.567,4.0,2.716,0.026
27/05/2023,09:48:17,1.581,4.0,2.742,0.026
27/05/2023,09:49:16,1.588,4.0,2.769,0.027
27/05/2023,09:50:15,1.587,4.0,2.795,0.026
27/05/2023,09:51:16,1.597,4.0,2.822,0.027
27/05/2023,09:52:16,1.600,4.0,2.848,0.026
27/05/2023,09:53:16,1.615,4.0,2.875,0.027
27/05/2023,09:54:16,1.622,4.0,2.902,0.027
27/05/2023,09:55:16,1.636,4.0,2.929,0.027
27/05/2023,09:56:15,1.632,4.0,2.955,0.026
27/05/2023,09:57:16,1.642,4.0,2.984,0.029
27/05/2023,09:58:16,1.650,4.0,3.011,0.027
27/05/2023,09:59:16,1.660,4.0,3.039,0.028
27/05/2023,10:00:16,1.668,4.0,3.066,0.027
27/05/2023,10:01:16,1.675,4.0,3.094,0.028